THOR ABLESTAR DEB, 19302

Orbit data source: Space-Track

THOR ABLESTAR DEB, 19302 is space debris in LEO originally from a launch on Thu, 29 Jun 1961 UTC launched from the Air Force Eastern Test Range (AFETR). Debris objects in space refer to the collection of defunct objects orbiting the Earth. Examples of debris include non-operational satellites, rocket bodies, and fragments generated from explosions, collisions, or faulty payload assembly.

Loading next visibility...
Identifier
19302, 1961-015MC
Orbit
LEO
Country
Flag of USUS
Related business
Manufacturer
Unknown
Mission
Spacecraft
Bus & Motor
Unknown
Mass
Unknown
Launch date (UTC)
1961-06-29 (64 years ago)
Launch vehicle
Unknown
Launch site
Air Force Eastern Test Range (AFETR)
Object type
Payload
Rocket body
Debris
Shape & HBR
Unknown shape, 0.1 m
Radar Cross Section
Small (<0.1 m²)

Expand to show TLE details & history
Last TLE update: 17 hours ago

TLE from 17 hours ago
0 THOR ABLESTAR DEB
1 19302U 61015MC  25341.27908059  .00001706  00000-0  98230-3 0  9992
2 19302  66.8445 291.0665 0048503 123.6841 236.8887 14.10971594927779
Epoch: 2025-12-07T06:41Z
TLE epoch observation values (Epoch: 2025-12-07T06:41:52.562Z)
Latitude
-0.0001°
Longitude
114.3027°
Altitude
877.437 km
Speed
7.404 km/s
True Right ascension
19h 24m 15s
True Declination
0° 00' 00"
Sunlit
Object was in daylight at epoch
Visualization orbit readout
Latitude
Unknown
Longitude
Unknown
Altitude
Unknown
Speed
Unknown
Apparent Right ascension
Unknown
Apparent Declination
Unknown
Sunlit
N/A
Visualization observer readout
Local Sidereal Time
21:42:50
Azimuth
Unknown
Elevation
Unknown
Doppler factor
Unknown
Orbital elements
Apogee altitude
889.502 km
Perigee altitude
819.341 km
Semi-major axis
7,232.559 km
Eccentricity
0.00485
Inclination
66.8445°
RAAN
291.0665°
Arg. of periapsis
123.6841°
True anomaly
236.42469°
Mean anomaly
236.8887°
Eccentric anomaly
236.65654°
Mean motion
3.52862 °/min
Orbital period
102.02 mins
BSTAR
0.0009823
Loading maneuver chart data...
Computing Atmospheric mass density...

Documentation

Showing up to 5 results
|